Location: Jetmore Oil Field
(38.1181°N, 99.9337°W)
Time: 19:22:37
(UTC+00:00)

ISS - Pass Details

Date: 02 July 2021
Orbit: 419 x 421 km, 51.6° (Epoch: 29 July)

Event Time Altitude Azimuth Distance (km) Brightness Sun altitude
Exits shadow 09:17:21 23° 299° (WNW) 944 -2.1 -19.1°
Maximum altitude 09:18:22 27° 330° (NNW) 840 -2.1 -18.9°
Drops below altitude 10° 09:21:18 10° 31° (NNE) 1,501 0.3 -18.6°
Sets 09:23:37 0° 44° (NE) 2,367 1.8 -18.3°
